Time,TemperatureF,DewpointF,PressureIn,WindDirection,WindDirectionDegrees,WindSpeedMPH,WindSpeedGustMPH,Humidity,HourlyPrecipIn,Conditions,Clouds,dailyrainin,SoftwareType,DateUTC
2013-01-20 00:04:00,46.4,-3.6,30.12,SSW,204,0.0,0.0,12,0.00,,,0.00,Wunderground v.1.15,2013-01-20 08:04:00,
2013-01-20 00:10:00,47.0,-4.9,30.12,SSW,204,0.0,0.0,11,0.00,,,0.00,Wunderground v.1.15,2013-01-20 08:10:00,
2013-01-20 00:15:00,47.4,-4.6,30.11,SSW,204,0.0,0.0,11,0.00,,,0.00,Wunderground v.1.15,2013-01-20 08:15:00,
2013-01-20 00:21:00,47.1,-4.8,30.11,SSW,204,0.0,0.0,11,0.00,,,0.00,Wunderground v.1.15,2013-01-20 08:21:00,
2013-01-20 00:27:00,46.7,-3.3,30.11,SSW,204,0.0,0.0,12,0.00,,,0.00,Wunderground v.1.15,2013-01-20 08:27:00,
2013-01-20 00:33:00,46.1,-3.8,30.11,SSW,204,0.0,0.0,12,0.00,,,0.00,Wunderground v.1.15,2013-01-20 08:33:00,
2013-01-20 00:39:00,45.8,-5.9,30.11,SSW,204,0.0,0.0,11,0.00,,,0.00,Wunderground v.1.15,2013-01-20 08:39:00,
2013-01-20 00:44:00,46.1,-3.8,30.11,SSW,204,0.0,0.0,12,0.00,,,0.00,Wunderground v.1.15,2013-01-20 08:44:00,
2013-01-20 00:49:00,46.2,-3.7,30.11,SSW,204,0.0,0.0,12,0.00,,,0.00,Wunderground v.1.15,2013-01-20 08:49:00,
2013-01-20 00:55:00,46.2,-3.7,30.11,SSW,204,0.0,0.0,12,0.00,,,0.00,Wunderground v.1.15,2013-01-20 08:55:00,
2013-01-20 01:00:00,46.1,-3.8,30.11,SSW,204,0.0,0.0,12,0.00,,,0.00,Wunderground v.1.15,2013-01-20 09:00:00,
2013-01-20 01:05:00,46.2,-2.0,30.11,SSW,204,0.0,0.0,13,0.00,,,0.00,Wunderground v.1.15,2013-01-20 09:05:00,
2013-01-20 01:11:00,46.4,-3.6,30.11,SSW,204,0.0,0.0,12,0.00,,,0.00,Wunderground v.1.15,2013-01-20 09:11:00,
2013-01-20 01:17:00,46.2,-3.7,30.11,SSW,204,0.0,0.0,12,0.00,,,0.00,Wunderground v.1.15,2013-01-20 09:17:00,
2013-01-20 01:22:00,46.4,-1.9,30.11,SSW,204,1.0,1.0,13,0.00,,,0.00,Wunderground v.1.15,2013-01-20 09:22:00,
2013-01-20 01:27:00,46.2,-2.0,30.11,SSW,204,1.0,1.0,13,0.00,,,0.00,Wunderground v.1.15,2013-01-20 09:27:00,
2013-01-20 01:33:00,46.0,-2.2,30.11,SSW,204,0.0,1.0,13,0.00,,,0.00,Wunderground v.1.15,2013-01-20 09:33:00,
2013-01-20 01:39:00,46.1,-3.8,30.11,SSW,204,0.0,1.0,12,0.00,,,0.00,Wunderground v.1.15,2013-01-20 09:39:00,
2013-01-20 01:44:00,46.2,-3.7,30.11,SSW,204,0.0,0.0,12,0.00,,,0.00,Wunderground v.1.15,2013-01-20 09:44:00,
2013-01-20 01:49:00,46.5,-3.5,30.11,SSW,204,0.0,0.0,12,0.00,,,0.00,Wunderground v.1.15,2013-01-20 09:49:00,
2013-01-20 01:55:00,46.8,-3.3,30.11,SSW,204,0.0,0.0,12,0.00,,,0.00,Wunderground v.1.15,2013-01-20 09:55:00,
2013-01-20 02:00:00,46.8,-3.3,30.11,SSW,204,1.0,3.0,12,0.00,,,0.00,Wunderground v.1.15,2013-01-20 10:00:00,
2013-01-20 02:06:00,46.8,-1.6,30.11,SSW,204,1.0,3.0,13,0.00,,,0.00,Wunderground v.1.15,2013-01-20 10:06:00,
2013-01-20 02:11:00,46.5,-1.8,30.11,SSW,204,0.0,1.0,13,0.00,,,0.00,Wunderground v.1.15,2013-01-20 10:11:00,
2013-01-20 02:16:00,46.1,-2.1,30.11,SSW,204,0.0,1.0,13,0.00,,,0.00,Wunderground v.1.15,2013-01-20 10:16:00,
2013-01-20 02:22:00,45.7,-2.4,30.11,SSW,204,0.0,0.0,13,0.00,,,0.00,Wunderground v.1.15,2013-01-20 10:22:00,
2013-01-20 02:27:00,45.5,-2.6,30.11,SSW,204,0.0,0.0,13,0.00,,,0.00,Wunderground v.1.15,2013-01-20 10:27:00,
2013-01-20 02:33:00,45.4,-2.7,30.10,SSW,204,0.0,0.0,13,0.00,,,0.00,Wunderground v.1.15,2013-01-20 10:33:00,
2013-01-20 02:38:00,45.5,-4.3,30.10,SSW,204,0.0,0.0,12,0.00,,,0.00,Wunderground v.1.15,2013-01-20 10:38:00,
2013-01-20 02:43:00,45.5,-4.3,30.10,SSW,204,0.0,0.0,12,0.00,,,0.00,Wunderground v.1.15,2013-01-20 10:43:00,
2013-01-20 02:49:00,45.5,-4.3,30.10,SSW,204,0.0,0.0,12,0.00,,,0.00,Wunderground v.1.15,2013-01-20 10:49:00,
2013-01-20 02:55:00,45.4,-2.7,30.10,SSW,204,0.0,0.0,13,0.00,,,0.00,Wunderground v.1.15,2013-01-20 10:55:00,
2013-01-20 03:01:00,45.5,-4.3,30.09,SSW,204,0.0,3.0,12,0.00,,,0.00,Wunderground v.1.15,2013-01-20 11:01:00,
2013-01-20 03:06:00,45.5,-2.6,30.09,SSW,204,0.0,3.0,13,0.00,,,0.00,Wunderground v.1.15,2013-01-20 11:06:00,
2013-01-20 03:11:00,45.5,-2.6,30.09,SSW,204,0.0,0.0,13,0.00,,,0.00,Wunderground v.1.15,2013-01-20 11:11:00,
2013-01-20 03:16:00,45.4,-2.7,30.09,SSW,204,0.0,0.0,13,0.00,,,0.00,Wunderground v.1.15,2013-01-20 11:16:00,
2013-01-20 03:21:00,45.4,-2.7,30.09,SSW,204,0.0,0.0,13,0.00,,,0.00,Wunderground v.1.15,2013-01-20 11:21:00,
2013-01-20 03:27:00,45.2,-4.5,30.09,SSW,204,0.0,0.0,12,0.00,,,0.00,Wunderground v.1.15,2013-01-20 11:27:00,
2013-01-20 03:32:00,45.2,-4.5,30.08,SSW,204,0.0,0.0,12,0.00,,,0.00,Wunderground v.1.15,2013-01-20 11:32:00,
2013-01-20 03:38:00,45.1,-2.9,30.08,SSW,204,0.0,0.0,13,0.00,,,0.00,Wunderground v.1.15,2013-01-20 11:38:00,
2013-01-20 03:44:00,44.6,-5.0,30.08,SSW,204,0.0,0.0,12,0.00,,,0.00,Wunderground v.1.15,2013-01-20 11:44:00,
2013-01-20 03:49:00,44.6,-5.0,30.08,SSW,204,0.0,0.0,12,0.00,,,0.00,Wunderground v.1.15,2013-01-20 11:49:00,
2013-01-20 03:55:00,44.6,-6.8,30.08,SSW,204,0.0,0.0,11,0.00,,,0.00,Wunderground v.1.15,2013-01-20 11:55:00,
2013-01-20 04:00:00,44.6,-6.8,30.08,SSW,204,0.0,3.0,11,0.00,,,0.00,Wunderground v.1.15,2013-01-20 12:00:00,
2013-01-20 04:06:00,44.5,-6.9,30.08,SSW,204,0.0,3.0,11,0.00,,,0.00,Wunderground v.1.15,2013-01-20 12:06:00,
2013-01-20 04:12:00,44.8,-6.6,30.08,SSW,204,0.0,0.0,11,0.00,,,0.00,Wunderground v.1.15,2013-01-20 12:12:00,
2013-01-20 04:18:00,45.1,-6.4,30.08,SSW,204,0.0,0.0,11,0.00,,,0.00,Wunderground v.1.15,2013-01-20 12:18:00,
2013-01-20 04:24:00,45.4,-4.4,30.08,SSW,204,0.0,0.0,12,0.00,,,0.00,Wunderground v.1.15,2013-01-20 12:24:00,
2013-01-20 04:29:00,45.7,-4.1,30.08,SSW,204,0.0,0.0,12,0.00,,,0.00,Wunderground v.1.15,2013-01-20 12:29:00,
2013-01-20 04:34:00,45.8,-4.0,30.09,SSW,204,0.0,0.0,12,0.00,,,0.00,Wunderground v.1.15,2013-01-20 12:34:00,
2013-01-20 04:39:00,45.7,-2.4,30.09,SSW,204,0.0,0.0,13,0.00,,,0.00,Wunderground v.1.15,2013-01-20 12:39:00,
2013-01-20 04:44:00,45.5,-2.6,30.08,SSW,204,0.0,0.0,13,0.00,,,0.00,Wunderground v.1.15,2013-01-20 12:44:00,
2013-01-20 04:49:00,45.2,-2.8,30.08,SSW,204,0.0,0.0,13,0.00,,,0.00,Wunderground v.1.15,2013-01-20 12:49:00,
2013-01-20 04:54:00,44.9,-3.1,30.08,SSW,204,0.0,0.0,13,0.00,,,0.00,Wunderground v.1.15,2013-01-20 12:54:00,
2013-01-20 04:59:00,44.9,-4.8,30.08,SSW,204,0.0,0.0,12,0.00,,,0.00,Wunderground v.1.15,2013-01-20 12:59:00,
2013-01-20 05:05:00,44.6,-3.3,30.08,SSW,204,0.0,0.0,13,0.00,,,0.00,Wunderground v.1.15,2013-01-20 13:05:00,
2013-01-20 05:10:00,44.2,-3.6,30.08,SSW,204,0.0,0.0,13,0.00,,,0.00,Wunderground v.1.15,2013-01-20 13:10:00,
2013-01-20 05:15:00,44.1,-5.4,30.09,SSW,204,0.0,0.0,12,0.00,,,0.00,Wunderground v.1.15,2013-01-20 13:15:00,
2013-01-20 05:21:00,44.2,-5.3,30.09,SSW,204,0.0,0.0,12,0.00,,,0.00,Wunderground v.1.15,2013-01-20 13:21:00,
2013-01-20 05:27:00,44.2,-5.3,30.09,SSW,204,0.0,0.0,12,0.00,,,0.00,Wunderground v.1.15,2013-01-20 13:27:00,
2013-01-20 05:33:00,44.3,-3.6,30.09,SSW,204,0.0,0.0,13,0.00,,,0.00,Wunderground v.1.15,2013-01-20 13:33:00,
2013-01-20 05:38:00,44.3,-3.6,30.09,SSW,204,0.0,0.0,13,0.00,,,0.00,Wunderground v.1.15,2013-01-20 13:38:00,
2013-01-20 05:43:00,44.2,-2.1,30.09,SSW,204,0.0,0.0,14,0.00,,,0.00,Wunderground v.1.15,2013-01-20 13:43:00,
2013-01-20 05:49:00,43.8,-2.4,30.09,SSW,204,0.0,0.0,14,0.00,,,0.00,Wunderground v.1.15,2013-01-20 13:49:00,
2013-01-20 05:54:00,43.6,-4.1,30.09,SSW,204,0.0,0.0,13,0.00,,,0.00,Wunderground v.1.15,2013-01-20 13:54:00,
2013-01-20 05:59:00,43.9,-3.9,30.09,SSW,204,0.0,0.0,13,0.00,,,0.00,Wunderground v.1.15,2013-01-20 13:59:00,
2013-01-20 06:04:00,44.2,-3.6,30.09,SSW,204,0.0,0.0,13,0.00,,,0.00,Wunderground v.1.15,2013-01-20 14:04:00,
2013-01-20 06:09:00,44.3,-3.6,30.09,SSW,204,0.0,0.0,13,0.00,,,0.00,Wunderground v.1.15,2013-01-20 14:09:00,
2013-01-20 06:15:00,44.3,-3.6,30.09,SSW,204,0.0,0.0,13,0.00,,,0.00,Wunderground v.1.15,2013-01-20 14:15:00,
2013-01-20 06:20:00,44.5,-3.4,30.09,SSW,204,0.0,0.0,13,0.00,,,0.00,Wunderground v.1.15,2013-01-20 14:20:00,
2013-01-20 06:25:00,44.5,-1.8,30.09,SSW,204,0.0,0.0,14,0.00,,,0.00,Wunderground v.1.15,2013-01-20 14:25:00,
2013-01-20 06:30:00,44.3,-2.0,30.10,SSW,204,0.0,0.0,14,0.00,,,0.00,Wunderground v.1.15,2013-01-20 14:30:00,
2013-01-20 06:36:00,44.1,-2.2,30.10,SSW,204,0.0,0.0,14,0.00,,,0.00,Wunderground v.1.15,2013-01-20 14:36:00,
2013-01-20 06:41:00,44.1,-0.7,30.10,SSW,204,0.0,0.0,15,0.00,,,0.00,Wunderground v.1.15,2013-01-20 14:41:00,
2013-01-20 06:47:00,43.8,-2.4,30.10,SSW,204,0.0,0.0,14,0.00,,,0.00,Wunderground v.1.15,2013-01-20 14:47:00,
2013-01-20 06:53:00,43.6,-2.6,30.10,SSW,204,0.0,0.0,14,0.00,,,0.00,Wunderground v.1.15,2013-01-20 14:53:00,
2013-01-20 06:59:00,43.9,-0.9,30.10,SSW,204,0.0,0.0,15,0.00,,,0.00,Wunderground v.1.15,2013-01-20 14:59:00,
2013-01-20 07:04:00,44.1,-2.2,30.10,SSW,204,0.0,0.0,14,0.00,,,0.00,Wunderground v.1.15,2013-01-20 15:04:00,
2013-01-20 07:10:00,44.3,-2.0,30.10,SSW,204,0.0,0.0,14,0.00,,,0.00,Wunderground v.1.15,2013-01-20 15:10:00,
2013-01-20 07:16:00,44.6,-1.8,30.10,SSW,204,0.0,0.0,14,0.00,,,0.00,Wunderground v.1.15,2013-01-20 15:16:00,
2013-01-20 07:21:00,44.6,-1.8,30.10,SSW,204,0.0,0.0,14,0.00,,,0.00,Wunderground v.1.15,2013-01-20 15:21:00,
2013-01-20 07:26:00,44.8,-1.6,30.10,SSW,204,0.0,0.0,14,0.00,,,0.00,Wunderground v.1.15,2013-01-20 15:26:00,
2013-01-20 07:31:00,45.1,-1.4,30.10,SSW,204,0.0,0.0,14,0.00,,,0.00,Wunderground v.1.15,2013-01-20 15:31:00,
2013-01-20 07:37:00,45.4,-2.7,30.10,SSW,204,0.0,0.0,13,0.00,,,0.00,Wunderground v.1.15,2013-01-20 15:37:00,
2013-01-20 07:43:00,45.7,-2.4,30.10,SSW,204,0.0,0.0,13,0.00,,,0.00,Wunderground v.1.15,2013-01-20 15:43:00,
2013-01-20 07:47:00,46.0,-2.2,30.10,SSW,204,0.0,0.0,13,0.00,,,0.00,Wunderground v.1.15,2013-01-20 15:47:00,
2013-01-20 07:53:00,46.1,-2.1,30.10,SSW,204,0.0,0.0,13,0.00,,,0.00,Wunderground v.1.15,2013-01-20 15:53:00,
2013-01-20 07:58:00,46.5,-1.8,30.10,SSW,204,0.0,0.0,13,0.00,,,0.00,Wunderground v.1.15,2013-01-20 15:58:00,
2013-01-20 08:04:00,47.0,-1.4,30.11,SSW,204,0.0,0.0,13,0.00,,,0.00,Wunderground v.1.15,2013-01-20 16:04:00,
2013-01-20 08:10:00,47.4,-1.1,30.11,SSW,204,0.0,0.0,13,0.00,,,0.00,Wunderground v.1.15,2013-01-20 16:10:00,
2013-01-20 08:15:00,47.7,-0.8,30.11,SSW,204,0.0,0.0,13,0.00,,,0.00,Wunderground v.1.15,2013-01-20 16:15:00,
2013-01-20 08:21:00,48.2,-0.5,30.11,SSW,204,0.0,0.0,13,0.00,,,0.00,Wunderground v.1.15,2013-01-20 16:21:00,
2013-01-20 08:27:00,48.3,-0.4,30.11,SSW,204,0.0,0.0,13,0.00,,,0.00,Wunderground v.1.15,2013-01-20 16:27:00,
2013-01-20 08:32:00,48.5,-0.2,30.11,SSW,204,0.0,0.0,13,0.00,,,0.00,Wunderground v.1.15,2013-01-20 16:32:00,
2013-01-20 08:38:00,48.9,0.1,30.11,SSW,204,0.0,0.0,13,0.00,,,0.00,Wunderground v.1.15,2013-01-20 16:38:00,
2013-01-20 08:43:00,49.1,1.9,30.11,SSW,204,0.0,0.0,14,0.00,,,0.00,Wunderground v.1.15,2013-01-20 16:43:00,
2013-01-20 08:49:00,49.4,2.1,30.11,SSW,204,0.0,0.0,14,0.00,,,0.00,Wunderground v.1.15,2013-01-20 16:49:00,
2013-01-20 08:54:00,49.5,0.6,30.11,SSW,204,0.0,0.0,13,0.00,,,0.00,Wunderground v.1.15,2013-01-20 16:54:00,
2013-01-20 09:00:00,49.8,0.8,30.11,SSW,204,0.0,0.0,13,0.00,,,0.00,Wunderground v.1.15,2013-01-20 17:00:00,
2013-01-20 09:05:00,49.8,2.4,30.11,SSW,204,0.0,0.0,14,0.00,,,0.00,Wunderground v.1.15,2013-01-20 17:05:00,
2013-01-20 09:11:00,49.9,2.5,30.11,SSW,204,0.0,0.0,14,0.00,,,0.00,Wunderground v.1.15,2013-01-20 17:11:00,
2013-01-20 09:16:00,50.1,2.7,30.12,SSW,204,0.0,0.0,14,0.00,,,0.00,Wunderground v.1.15,2013-01-20 17:16:00,
2013-01-20 09:22:00,50.5,5.9,30.12,SSW,204,0.0,0.0,16,0.00,,,0.00,Wunderground v.1.15,2013-01-20 17:22:00,
2013-01-20 09:28:00,51.4,9.2,30.12,SSW,204,0.0,1.0,18,0.00,,,0.00,Wunderground v.1.15,2013-01-20 17:28:00,
2013-01-20 09:34:00,51.4,5.2,30.12,SSW,204,0.0,0.0,15,0.00,,,0.00,Wunderground v.1.15,2013-01-20 17:34:00,
2013-01-20 09:39:00,51.3,5.1,30.12,SSW,204,0.0,0.0,15,0.00,,,0.00,Wunderground v.1.15,2013-01-20 17:39:00,
2013-01-20 09:45:00,51.3,6.5,30.12,SSW,204,0.0,2.0,16,0.00,,,0.00,Wunderground v.1.15,2013-01-20 17:45:00,
2013-01-20 09:50:00,51.3,6.5,30.12,SSW,204,1.0,1.0,16,0.00,,,0.00,Wunderground v.1.15,2013-01-20 17:50:00,
2013-01-20 09:56:00,51.4,6.6,30.12,SSW,204,0.0,1.0,16,0.00,,,0.00,Wunderground v.1.15,2013-01-20 17:56:00,
2013-01-20 10:01:00,51.6,6.8,30.12,SSW,204,0.0,1.0,16,0.00,,,0.00,Wunderground v.1.15,2013-01-20 18:01:00,
2013-01-20 10:07:00,52.8,7.8,30.12,SSW,204,0.0,1.0,16,0.00,,,0.00,Wunderground v.1.15,2013-01-20 18:07:00,
2013-01-20 10:13:00,54.4,10.4,30.12,SSW,204,0.0,0.0,17,0.00,,,0.00,Wunderground v.1.15,2013-01-20 18:13:00,
2013-01-20 10:18:00,54.8,10.7,30.12,SSW,204,0.0,0.0,17,0.00,,,0.00,Wunderground v.1.15,2013-01-20 18:18:00,
2013-01-20 10:23:00,54.4,9.1,30.12,SSW,204,0.0,0.0,16,0.00,,,0.00,Wunderground v.1.15,2013-01-20 18:23:00,
2013-01-20 10:29:00,53.5,11.0,30.12,SSW,204,0.0,1.0,18,0.00,,,0.00,Wunderground v.1.15,2013-01-20 18:29:00,
2013-01-20 10:35:00,53.5,11.0,30.11,SSW,204,0.0,0.0,18,0.00,,,0.00,Wunderground v.1.15,2013-01-20 18:35:00,
2013-01-20 10:41:00,54.2,10.3,30.11,SSW,204,0.0,0.0,17,0.00,,,0.00,Wunderground v.1.15,2013-01-20 18:41:00,
2013-01-20 10:47:00,54.2,11.5,30.11,SSW,204,0.0,0.0,18,0.00,,,0.00,Wunderground v.1.15,2013-01-20 18:47:00,
2013-01-20 10:52:00,53.8,9.9,30.11,SSW,204,0.0,0.0,17,0.00,,,0.00,Wunderground v.1.15,2013-01-20 18:52:00,
2013-01-20 10:58:00,53.2,9.4,30.11,SSW,206,0.0,2.0,17,0.00,,,0.00,Wunderground v.1.15,2013-01-20 18:58:00,
2013-01-20 11:04:00,53.6,9.8,30.10,SSW,206,0.0,2.0,17,0.00,,,0.00,Wunderground v.1.15,2013-01-20 19:04:00,
2013-01-20 11:10:00,53.9,10.0,30.10,SSW,206,0.0,0.0,17,0.00,,,0.00,Wunderground v.1.15,2013-01-20 19:10:00,
2013-01-20 11:16:00,54.4,9.1,30.10,SSW,206,0.0,2.0,16,0.00,,,0.00,Wunderground v.1.15,2013-01-20 19:16:00,
2013-01-20 11:21:00,54.1,8.8,30.10,SSW,207,0.0,0.0,16,0.00,,,0.00,Wunderground v.1.15,2013-01-20 19:21:00,
2013-01-20 11:27:00,53.6,9.8,30.10,SSW,207,0.0,0.0,17,0.00,,,0.00,Wunderground v.1.15,2013-01-20 19:27:00,
2013-01-20 11:33:00,54.8,9.4,30.09,SSW,207,0.0,0.0,16,0.00,,,0.00,Wunderground v.1.15,2013-01-20 19:33:00,
2013-01-20 11:38:00,56.5,7.8,30.09,SSW,200,0.0,0.0,14,0.00,,,0.00,Wunderground v.1.15,2013-01-20 19:38:00,
2013-01-20 11:43:00,57.2,8.3,30.09,SSW,199,0.0,0.0,14,0.00,,,0.00,Wunderground v.1.15,2013-01-20 19:43:00,
2013-01-20 11:49:00,56.9,12.5,30.08,SSW,199,0.0,0.0,17,0.00,,,0.00,Wunderground v.1.15,2013-01-20 19:49:00,
2013-01-20 11:54:00,56.0,10.4,30.08,SSW,199,0.0,0.0,16,0.00,,,0.00,Wunderground v.1.15,2013-01-20 19:54:00,
2013-01-20 12:00:00,57.3,11.4,30.07,SSW,199,0.0,0.0,16,0.00,,,0.00,Wunderground v.1.15,2013-01-20 20:00:00,
2013-01-20 12:05:00,56.6,10.9,30.07,SSW,200,0.0,4.0,16,0.00,,,0.00,Wunderground v.1.15,2013-01-20 20:05:00,
2013-01-20 12:11:00,55.1,12.3,30.07,SSW,200,0.0,0.0,18,0.00,,,0.00,Wunderground v.1.15,2013-01-20 20:11:00,
2013-01-20 12:17:00,56.0,11.7,30.06,SSW,199,0.0,0.0,17,0.00,,,0.00,Wunderground v.1.15,2013-01-20 20:17:00,
2013-01-20 12:22:00,56.9,12.5,30.06,SSW,199,0.0,0.0,17,0.00,,,0.00,Wunderground v.1.15,2013-01-20 20:22:00,
2013-01-20 12:27:00,55.7,12.8,30.06,SSW,200,0.0,0.0,18,0.00,,,0.00,Wunderground v.1.15,2013-01-20 20:27:00,
2013-01-20 12:33:00,54.5,11.8,30.06,SSW,204,1.0,1.0,18,0.00,,,0.00,Wunderground v.1.15,2013-01-20 20:33:00,
2013-01-20 12:39:00,54.1,11.5,30.06,SSW,204,0.0,1.0,18,0.00,,,0.00,Wunderground v.1.15,2013-01-20 20:39:00,
2013-01-20 12:45:00,55.0,10.9,30.05,SSW,204,0.0,2.0,17,0.00,,,0.00,Wunderground v.1.15,2013-01-20 20:45:00,
2013-01-20 12:50:00,54.2,11.5,30.05,SSW,205,0.0,0.0,18,0.00,,,0.00,Wunderground v.1.15,2013-01-20 20:50:00,
2013-01-20 12:55:00,54.4,10.4,30.05,SSW,205,0.0,0.0,17,0.00,,,0.00,Wunderground v.1.15,2013-01-20 20:55:00,
2013-01-20 13:01:00,54.8,13.3,30.04,SSW,205,0.0,3.0,19,0.00,,,0.00,Wunderground v.1.15,2013-01-20 21:01:00,
2013-01-20 13:06:00,55.4,12.5,30.04,SSW,205,0.0,3.0,18,0.00,,,0.00,Wunderground v.1.15,2013-01-20 21:06:00,
2013-01-20 13:12:00,55.7,11.5,30.04,SSW,205,0.0,0.0,17,0.00,,,0.00,Wunderground v.1.15,2013-01-20 21:12:00,
2013-01-20 13:18:00,56.5,10.8,30.04,SSW,196,0.0,4.0,16,0.00,,,0.00,Wunderground v.1.15,2013-01-20 21:18:00,
2013-01-20 13:23:00,57.0,9.7,30.04,South,180,1.0,5.0,15,0.00,,,0.00,Wunderground v.1.15,2013-01-20 21:23:00,
2013-01-20 13:28:00,56.9,11.1,30.04,South,169,1.0,5.0,16,0.00,,,0.00,Wunderground v.1.15,2013-01-20 21:28:00,
2013-01-20 13:34:00,57.0,11.2,30.03,South,169,1.0,1.0,16,0.00,,,0.00,Wunderground v.1.15,2013-01-20 21:34:00,
2013-01-20 13:40:00,57.5,13.0,30.03,South,170,1.0,1.0,17,0.00,,,0.00,Wunderground v.1.15,2013-01-20 21:40:00,
2013-01-20 13:45:00,57.0,11.2,30.03,South,170,1.0,1.0,16,0.00,,,0.00,Wunderground v.1.15,2013-01-20 21:45:00,
2013-01-20 13:51:00,56.7,12.3,30.03,South,170,0.0,0.0,17,0.00,,,0.00,Wunderground v.1.15,2013-01-20 21:51:00,
2013-01-20 13:57:00,57.6,13.0,30.03,South,170,0.0,0.0,17,0.00,,,0.00,Wunderground v.1.15,2013-01-20 21:57:00,
2013-01-20 14:02:00,57.8,11.8,30.03,South,170,0.0,5.0,16,0.00,,,0.00,Wunderground v.1.15,2013-01-20 22:02:00,
2013-01-20 14:07:00,57.0,11.2,30.03,South,169,0.0,5.0,16,0.00,,,0.00,Wunderground v.1.15,2013-01-20 22:07:00,
2013-01-20 14:12:00,56.3,10.6,30.03,South,171,1.0,1.0,16,0.00,,,0.00,Wunderground v.1.15,2013-01-20 22:12:00,
2013-01-20 14:18:00,57.0,12.5,30.02,South,171,0.0,1.0,17,0.00,,,0.00,Wunderground v.1.15,2013-01-20 22:18:00,
2013-01-20 14:23:00,56.7,13.6,30.02,South,171,0.0,0.0,18,0.00,,,0.00,Wunderground v.1.15,2013-01-20 22:23:00,
2013-01-20 14:28:00,55.4,13.8,30.02,South,171,0.0,0.0,19,0.00,,,0.00,Wunderground v.1.15,2013-01-20 22:28:00,
2013-01-20 14:34:00,55.9,14.2,30.02,South,172,0.0,0.0,19,0.00,,,0.00,Wunderground v.1.15,2013-01-20 22:34:00,
2013-01-20 14:39:00,56.2,13.2,30.02,South,172,0.0,0.0,18,0.00,,,0.00,Wunderground v.1.15,2013-01-20 22:39:00,
2013-01-20 14:44:00,55.3,12.4,30.02,South,174,0.0,1.0,18,0.00,,,0.00,Wunderground v.1.15,2013-01-20 22:44:00,
2013-01-20 14:49:00,54.1,12.7,30.02,South,174,0.0,0.0,19,0.00,,,0.00,Wunderground v.1.15,2013-01-20 22:49:00,
2013-01-20 14:55:00,54.2,12.8,30.02,South,174,0.0,0.0,19,0.00,,,0.00,Wunderground v.1.15,2013-01-20 22:55:00,
2013-01-20 15:01:00,54.5,13.0,30.02,South,174,0.0,7.0,19,0.00,,,0.00,Wunderground v.1.15,2013-01-20 23:01:00,
2013-01-20 15:06:00,54.8,12.0,30.02,South,174,0.0,7.0,18,0.00,,,0.00,Wunderground v.1.15,2013-01-20 23:06:00,
2013-01-20 15:12:00,55.1,13.5,30.02,South,174,0.0,0.0,19,0.00,,,0.00,Wunderground v.1.15,2013-01-20 23:12:00,
2013-01-20 15:18:00,55.0,12.2,30.02,South,174,0.0,2.0,18,0.00,,,0.00,Wunderground v.1.15,2013-01-20 23:18:00,
2013-01-20 15:23:00,56.0,11.7,30.02,South,174,0.0,0.0,17,0.00,,,0.00,Wunderground v.1.15,2013-01-20 23:23:00,
2013-01-20 15:28:00,56.7,10.9,30.02,South,174,0.0,0.0,16,0.00,,,0.00,Wunderground v.1.15,2013-01-20 23:28:00,
2013-01-20 15:33:00,55.7,11.5,30.02,South,174,0.0,3.0,17,0.00,,,0.00,Wunderground v.1.15,2013-01-20 23:33:00,
2013-01-20 15:39:00,55.7,8.7,30.02,South,174,1.0,3.0,15,0.00,,,0.00,Wunderground v.1.15,2013-01-20 23:39:00,
2013-01-20 15:45:00,55.7,10.1,30.02,South,174,0.0,1.0,16,0.00,,,0.00,Wunderground v.1.15,2013-01-20 23:45:00,
2013-01-20 15:51:00,55.9,10.3,30.02,South,174,0.0,0.0,16,0.00,,,0.00,Wunderground v.1.15,2013-01-20 23:51:00,
2013-01-20 15:57:00,56.2,10.5,30.02,South,174,0.0,0.0,16,0.00,,,0.00,Wunderground v.1.15,2013-01-20 23:57:00,
2013-01-20 16:02:00,55.7,10.1,30.02,South,174,0.0,5.0,16,0.00,,,0.00,Wunderground v.1.15,2013-01-21 00:02:00,
2013-01-20 16:07:00,55.0,10.9,30.02,South,174,0.0,5.0,17,0.00,,,0.00,Wunderground v.1.15,2013-01-21 00:07:00,
2013-01-20 16:13:00,55.0,10.9,30.02,South,174,0.0,0.0,17,0.00,,,0.00,Wunderground v.1.15,2013-01-21 00:13:00,
2013-01-20 16:19:00,54.5,11.8,30.02,South,174,0.0,0.0,18,0.00,,,0.00,Wunderground v.1.15,2013-01-21 00:19:00,
2013-01-20 16:24:00,53.6,13.4,30.02,South,174,0.0,0.0,20,0.00,,,0.00,Wunderground v.1.15,2013-01-21 00:24:00,
2013-01-20 16:29:00,52.9,11.7,30.02,South,174,0.0,0.0,19,0.00,,,0.00,Wunderground v.1.15,2013-01-21 00:29:00,
2013-01-20 16:35:00,52.3,11.2,30.02,South,174,0.0,0.0,19,0.00,,,0.00,Wunderground v.1.15,2013-01-21 00:35:00,
2013-01-20 16:41:00,51.6,11.8,30.02,South,174,0.0,0.0,20,0.00,,,0.00,Wunderground v.1.15,2013-01-21 00:41:00,
2013-01-20 16:48:00,50.7,11.0,30.03,South,174,1.0,1.0,20,0.00,,,0.00,Wunderground v.1.15,2013-01-21 00:48:00,
2013-01-20 16:54:00,49.9,12.5,30.03,South,174,1.0,2.0,22,0.00,,,0.00,Wunderground v.1.15,2013-01-21 00:54:00,
2013-01-20 17:00:00,49.4,12.1,30.03,South,174,1.0,2.0,22,0.00,,,0.00,Wunderground v.1.15,2013-01-21 01:00:00,
2013-01-20 17:06:00,48.8,11.6,30.03,South,174,1.0,6.0,22,0.00,,,0.00,Wunderground v.1.15,2013-01-21 01:06:00,
2013-01-20 17:12:00,48.3,12.2,30.03,South,174,0.0,0.0,23,0.00,,,0.00,Wunderground v.1.15,2013-01-21 01:12:00,
2013-01-20 17:18:00,47.7,11.6,30.04,South,174,0.0,0.0,23,0.00,,,0.00,Wunderground v.1.15,2013-01-21 01:18:00,
2013-01-20 17:24:00,47.3,10.3,30.04,South,174,0.0,0.0,22,0.00,,,0.00,Wunderground v.1.15,2013-01-21 01:24:00,
2013-01-20 17:29:00,47.0,10.1,30.04,South,174,1.0,1.0,22,0.00,,,0.00,Wunderground v.1.15,2013-01-21 01:29:00,
2013-01-20 17:35:00,46.8,9.9,30.04,South,174,1.0,1.0,22,0.00,,,0.00,Wunderground v.1.15,2013-01-21 01:35:00,
2013-01-20 17:41:00,46.8,10.9,30.04,South,174,0.0,0.0,23,0.00,,,0.00,Wunderground v.1.15,2013-01-21 01:41:00,
2013-01-20 17:46:00,46.2,11.3,30.04,South,174,0.0,0.0,24,0.00,,,0.00,Wunderground v.1.15,2013-01-21 01:46:00,
2013-01-20 17:52:00,46.1,11.2,30.04,South,174,0.0,0.0,24,0.00,,,0.00,Wunderground v.1.15,2013-01-21 01:52:00,
2013-01-20 17:58:00,46.0,10.2,30.04,South,174,0.0,0.0,23,0.00,,,0.00,Wunderground v.1.15,2013-01-21 01:58:00,
2013-01-20 18:04:00,45.8,9.0,30.04,South,174,0.0,3.0,22,0.00,,,0.00,Wunderground v.1.15,2013-01-21 02:04:00,
2013-01-20 18:09:00,45.8,9.0,30.04,South,174,0.0,0.0,22,0.00,,,0.00,Wunderground v.1.15,2013-01-21 02:09:00,
2013-01-20 18:15:00,45.7,9.0,30.04,South,174,0.0,0.0,22,0.00,,,0.00,Wunderground v.1.15,2013-01-21 02:15:00,
2013-01-20 18:21:00,45.4,8.7,30.04,South,174,0.0,0.0,22,0.00,,,0.00,Wunderground v.1.15,2013-01-21 02:21:00,
2013-01-20 18:26:00,45.2,8.5,30.04,South,174,0.0,0.0,22,0.00,,,0.00,Wunderground v.1.15,2013-01-21 02:26:00,
2013-01-20 18:32:00,45.5,7.8,30.05,South,174,0.0,0.0,21,0.00,,,0.00,Wunderground v.1.15,2013-01-21 02:32:00,
2013-01-20 18:38:00,45.5,7.8,30.05,South,174,0.0,0.0,21,0.00,,,0.00,Wunderground v.1.15,2013-01-21 02:38:00,
2013-01-20 18:44:00,45.1,8.5,30.05,South,174,0.0,0.0,22,0.00,,,0.00,Wunderground v.1.15,2013-01-21 02:44:00,
2013-01-20 18:49:00,44.9,7.3,30.05,South,174,1.0,3.0,21,0.00,,,0.00,Wunderground v.1.15,2013-01-21 02:49:00,
2013-01-20 18:55:00,45.2,6.4,30.05,South,174,1.0,1.0,20,0.00,,,0.00,Wunderground v.1.15,2013-01-21 02:55:00,
2013-01-20 19:01:00,45.7,5.7,30.06,South,174,0.0,2.0,19,0.00,,,0.00,Wunderground v.1.15,2013-01-21 03:01:00,
2013-01-20 19:06:00,46.0,6.0,30.06,South,174,0.0,2.0,19,0.00,,,0.00,Wunderground v.1.15,2013-01-21 03:06:00,
2013-01-20 19:12:00,45.8,6.9,30.06,South,174,1.0,2.0,20,0.00,,,0.00,Wunderground v.1.15,2013-01-21 03:12:00,
2013-01-20 19:17:00,45.7,5.7,30.06,South,174,1.0,2.0,19,0.00,,,0.00,Wunderground v.1.15,2013-01-21 03:17:00,
2013-01-20 19:22:00,45.4,5.5,30.06,South,174,0.0,0.0,19,0.00,,,0.00,Wunderground v.1.15,2013-01-21 03:22:00,
2013-01-20 19:28:00,45.1,4.0,30.06,South,174,0.0,0.0,18,0.00,,,0.00,Wunderground v.1.15,2013-01-21 03:28:00,
2013-01-20 19:33:00,44.8,2.6,30.06,South,174,0.0,0.0,17,0.00,,,0.00,Wunderground v.1.15,2013-01-21 03:33:00,
2013-01-20 19:38:00,44.9,2.6,30.06,South,174,0.0,0.0,17,0.00,,,0.00,Wunderground v.1.15,2013-01-21 03:38:00,
2013-01-20 19:44:00,45.1,2.8,30.06,South,174,0.0,0.0,17,0.00,,,0.00,Wunderground v.1.15,2013-01-21 03:44:00,
2013-01-20 19:50:00,44.8,1.2,30.06,South,174,0.0,0.0,16,0.00,,,0.00,Wunderground v.1.15,2013-01-21 03:50:00,
2013-01-20 19:55:00,44.6,2.4,30.06,South,174,0.0,0.0,17,0.00,,,0.00,Wunderground v.1.15,2013-01-21 03:55:00,
2013-01-20 20:00:00,44.8,3.8,30.07,South,174,0.0,3.0,18,0.00,,,0.00,Wunderground v.1.15,2013-01-21 04:00:00,
2013-01-20 20:06:00,44.9,2.6,30.07,South,174,0.0,3.0,17,0.00,,,0.00,Wunderground v.1.15,2013-01-21 04:06:00,
2013-01-20 20:12:00,45.1,1.5,30.07,South,174,0.0,0.0,16,0.00,,,0.00,Wunderground v.1.15,2013-01-21 04:12:00,
2013-01-20 20:17:00,45.1,2.8,30.07,South,174,0.0,0.0,17,0.00,,,0.00,Wunderground v.1.15,2013-01-21 04:17:00,
2013-01-20 20:23:00,44.8,3.8,30.07,South,174,0.0,0.0,18,0.00,,,0.00,Wunderground v.1.15,2013-01-21 04:23:00,
2013-01-20 20:29:00,44.6,1.1,30.07,South,174,0.0,0.0,16,0.00,,,0.00,Wunderground v.1.15,2013-01-21 04:29:00,
2013-01-20 20:34:00,44.9,-0.1,30.07,South,174,0.0,0.0,15,0.00,,,0.00,Wunderground v.1.15,2013-01-21 04:34:00,
2013-01-20 20:39:00,45.1,1.5,30.07,South,174,0.0,0.0,16,0.00,,,0.00,Wunderground v.1.15,2013-01-21 04:39:00,
2013-01-20 20:45:00,45.1,0.1,30.07,South,174,0.0,0.0,15,0.00,,,0.00,Wunderground v.1.15,2013-01-21 04:45:00,
2013-01-20 20:51:00,44.9,-0.1,30.07,South,174,0.0,0.0,15,0.00,,,0.00,Wunderground v.1.15,2013-01-21 04:51:00,
2013-01-20 20:58:00,44.5,-0.4,30.07,South,174,0.0,0.0,15,0.00,,,0.00,Wunderground v.1.15,2013-01-21 04:58:00,
2013-01-20 21:02:00,44.3,-0.5,30.07,South,174,0.0,3.0,15,0.00,,,0.00,Wunderground v.1.15,2013-01-21 05:02:00,
2013-01-20 21:03:00,44.3,-0.5,30.07,South,174,0.0,3.0,15,0.00,,,0.00,Wunderground v.1.15,2013-01-21 05:03:00,
2013-01-20 21:05:00,44.3,-0.5,30.07,South,174,0.0,3.0,15,0.00,,,0.00,Wunderground v.1.15,2013-01-21 05:05:00,
2013-01-20 21:07:00,44.3,-2.0,30.07,South,174,0.0,3.0,14,0.00,,,0.00,Wunderground v.1.15,2013-01-21 05:07:00,
2013-01-20 21:12:00,44.5,-1.8,30.07,South,174,0.0,0.0,14,0.00,,,0.00,Wunderground v.1.15,2013-01-21 05:12:00,
2013-01-20 21:18:00,44.3,-2.0,30.07,South,174,0.0,0.0,14,0.00,,,0.00,Wunderground v.1.15,2013-01-21 05:18:00,
2013-01-20 21:23:00,43.9,-0.9,30.07,South,174,0.0,0.0,15,0.00,,,0.00,Wunderground v.1.15,2013-01-21 05:23:00,
2013-01-20 21:29:00,43.6,-1.1,30.07,South,174,0.0,0.0,15,0.00,,,0.00,Wunderground v.1.15,2013-01-21 05:29:00,
2013-01-20 21:34:00,43.9,-0.9,30.07,South,174,0.0,0.0,15,0.00,,,0.00,Wunderground v.1.15,2013-01-21 05:34:00,
2013-01-20 21:40:00,44.3,2.1,30.07,South,174,0.0,0.0,17,0.00,,,0.00,Wunderground v.1.15,2013-01-21 05:40:00,
2013-01-20 21:45:00,44.3,3.4,30.07,South,174,0.0,0.0,18,0.00,,,0.00,Wunderground v.1.15,2013-01-21 05:45:00,
2013-01-20 21:51:00,44.6,3.6,30.07,South,174,0.0,0.0,18,0.00,,,0.00,Wunderground v.1.15,2013-01-21 05:51:00,
2013-01-20 21:57:00,45.1,2.8,30.07,South,174,0.0,0.0,17,0.00,,,0.00,Wunderground v.1.15,2013-01-21 05:57:00,
2013-01-20 22:03:00,45.1,1.5,30.07,South,174,0.0,1.0,16,0.00,,,0.00,Wunderground v.1.15,2013-01-21 06:03:00,
2013-01-20 22:08:00,44.9,2.6,30.07,South,174,0.0,1.0,17,0.00,,,0.00,Wunderground v.1.15,2013-01-21 06:08:00,
2013-01-20 22:14:00,44.6,2.4,30.07,South,174,0.0,0.0,17,0.00,,,0.00,Wunderground v.1.15,2013-01-21 06:14:00,
2013-01-20 22:19:00,44.2,0.8,30.07,South,174,1.0,2.0,16,0.00,,,0.00,Wunderground v.1.15,2013-01-21 06:19:00,
2013-01-20 22:25:00,44.1,2.0,30.07,South,174,1.0,1.0,17,0.00,,,0.00,Wunderground v.1.15,2013-01-21 06:25:00,
2013-01-20 22:31:00,43.9,1.8,30.07,South,174,0.0,0.0,17,0.00,,,0.00,Wunderground v.1.15,2013-01-21 06:31:00,
2013-01-20 22:36:00,43.8,1.7,30.07,South,174,0.0,0.0,17,0.00,,,0.00,Wunderground v.1.15,2013-01-21 06:36:00,
2013-01-20 22:41:00,43.8,3.0,30.07,South,174,0.0,0.0,18,0.00,,,0.00,Wunderground v.1.15,2013-01-21 06:41:00,
2013-01-20 22:47:00,43.9,1.8,30.07,South,174,0.0,0.0,17,0.00,,,0.00,Wunderground v.1.15,2013-01-21 06:47:00,
2013-01-20 22:53:00,43.8,0.4,30.07,South,174,0.0,2.0,16,0.00,,,0.00,Wunderground v.1.15,2013-01-21 06:53:00,
2013-01-20 22:58:00,43.9,1.8,30.07,South,174,0.0,2.0,17,0.00,,,0.00,Wunderground v.1.15,2013-01-21 06:58:00,
2013-01-20 23:04:00,44.2,2.1,30.07,South,174,0.0,0.0,17,0.00,,,0.00,Wunderground v.1.15,2013-01-21 07:04:00,
2013-01-20 23:10:00,44.5,3.5,30.07,South,174,0.0,0.0,18,0.00,,,0.00,Wunderground v.1.15,2013-01-21 07:10:00,
2013-01-20 23:15:00,44.5,3.5,30.07,South,174,0.0,0.0,18,0.00,,,0.00,Wunderground v.1.15,2013-01-21 07:15:00,
2013-01-20 23:20:00,44.5,3.5,30.07,South,174,0.0,0.0,18,0.00,,,0.00,Wunderground v.1.15,2013-01-21 07:20:00,
2013-01-20 23:25:00,44.3,4.6,30.07,South,174,0.0,0.0,19,0.00,,,0.00,Wunderground v.1.15,2013-01-21 07:25:00,
2013-01-20 23:31:00,43.6,2.8,30.07,South,174,0.0,0.0,18,0.00,,,0.00,Wunderground v.1.15,2013-01-21 07:31:00,
2013-01-20 23:36:00,43.3,2.6,30.07,South,174,0.0,0.0,18,0.00,,,0.00,Wunderground v.1.15,2013-01-21 07:36:00,
2013-01-20 23:41:00,43.3,2.6,30.07,South,174,0.0,0.0,18,0.00,,,0.00,Wunderground v.1.15,2013-01-21 07:41:00,
2013-01-20 23:47:00,43.2,2.5,30.06,South,174,0.0,0.0,18,0.00,,,0.00,Wunderground v.1.15,2013-01-21 07:47:00,
2013-01-20 23:53:00,43.5,2.7,30.06,South,174,0.0,0.0,18,0.00,,,0.00,Wunderground v.1.15,2013-01-21 07:53:00,
2013-01-20 23:59:00,44.1,3.2,30.06,South,174,0.0,0.0,18,0.00,,,0.00,Wunderground v.1.15,2013-01-21 07:59:00,